Time,TemperatureF,DewpointF,PressureIn,WindDirection,WindDirectionDegrees,WindSpeedMPH,WindSpeedGustMPH,Humidity,HourlyPrecipIn,Conditions,Clouds,dailyrainin,SoftwareType,DateUTC
2013-04-09 00:03:00,60.3,58.0,30.17,WSW,242,6.0,9.0,91,0.00,,,0.00,weatherlink.com 1.10,2013-04-09 04:03:00,
2013-04-09 00:18:00,60.0,57.0,30.16,WSW,246,5.0,8.0,91,0.00,,,0.00,weatherlink.com 1.10,2013-04-09 04:18:00,
2013-04-09 00:33:00,60.2,58.0,30.17,SW,232,4.0,9.0,91,0.00,,,0.00,weatherlink.com 1.10,2013-04-09 04:33:00,
2013-04-09 00:48:00,60.0,57.0,30.16,WSW,241,6.0,8.0,91,0.00,,,0.00,weatherlink.com 1.10,2013-04-09 04:48:00,
2013-04-09 01:03:00,60.5,58.0,30.17,WSW,251,3.0,8.0,92,0.00,,,0.00,weatherlink.com 1.10,2013-04-09 05:03:00,
2013-04-09 01:18:00,60.4,58.0,30.16,West,268,5.0,6.0,91,0.00,,,0.00,weatherlink.com 1.10,2013-04-09 05:18:00,
2013-04-09 01:33:00,60.2,58.0,30.16,West,267,3.0,6.0,91,0.00,,,0.00,weatherlink.com 1.10,2013-04-09 05:33:00,
2013-04-09 01:48:00,59.9,58.0,30.16,WSW,254,4.0,7.0,92,0.00,,,0.00,weatherlink.com 1.10,2013-04-09 05:48:00,
2013-04-09 02:03:00,60.4,58.0,30.15,West,269,3.0,9.0,92,0.00,,,0.00,weatherlink.com 1.10,2013-04-09 06:03:00,
2013-04-09 02:18:00,60.5,58.0,30.15,WSW,246,4.0,8.0,92,0.00,,,0.00,weatherlink.com 1.10,2013-04-09 06:18:00,
2013-04-09 02:33:00,60.5,58.0,30.15,WSW,252,3.0,10.0,92,0.00,,,0.00,weatherlink.com 1.10,2013-04-09 06:33:00,
2013-04-09 02:48:00,60.0,58.0,30.14,West,267,2.0,8.0,92,0.00,,,0.00,weatherlink.com 1.10,2013-04-09 06:48:00,
2013-04-09 03:03:00,59.9,58.0,30.14,WSW,255,5.0,7.0,92,0.00,,,0.00,weatherlink.com 1.10,2013-04-09 07:03:00,
2013-04-09 03:18:00,60.0,58.0,30.14,SW,227,4.0,8.0,92,0.00,,,0.00,weatherlink.com 1.10,2013-04-09 07:18:00,
2013-04-09 03:33:00,59.7,57.0,30.14,WSW,251,3.0,7.0,92,0.00,,,0.00,weatherlink.com 1.10,2013-04-09 07:33:00,
2013-04-09 04:33:00,59.1,57.0,30.14,West,263,0.0,5.0,93,0.00,,,0.00,weatherlink.com 1.10,2013-04-09 08:33:00,
2013-04-09 05:34:00,59.3,58.0,30.16,WSW,254,1.0,4.0,94,0.00,,,0.00,weatherlink.com 1.10,2013-04-09 09:34:00,
2013-04-09 05:49:00,59.2,58.0,30.17,West,259,1.0,3.0,94,0.00,,,0.00,weatherlink.com 1.10,2013-04-09 09:49:00,
2013-04-09 06:19:00,59.4,58.0,30.17,SW,233,2.0,4.0,94,0.00,,,0.00,weatherlink.com 1.10,2013-04-09 10:19:00,
2013-04-09 06:34:00,59.4,58.0,30.18,SW,224,3.0,4.0,94,0.00,,,0.00,weatherlink.com 1.10,2013-04-09 10:34:00,
2013-04-09 06:49:00,59.3,58.0,30.19,SW,223,1.0,5.0,94,0.00,,,0.00,weatherlink.com 1.10,2013-04-09 10:49:00,
2013-04-09 07:19:00,59.5,58.0,30.20,SSW,213,2.0,4.0,94,0.00,,,0.00,weatherlink.com 1.10,2013-04-09 11:19:00,
2013-04-09 07:34:00,59.7,58.0,30.20,SW,228,2.0,4.0,94,0.00,,,0.00,weatherlink.com 1.10,2013-04-09 11:34:00,
2013-04-09 07:49:00,59.9,58.0,30.20,WSW,244,2.0,5.0,93,0.00,,,0.00,weatherlink.com 1.10,2013-04-09 11:49:00,
2013-04-09 08:04:00,60.4,58.0,30.21,WSW,242,3.0,6.0,93,0.00,,,0.00,weatherlink.com 1.10,2013-04-09 12:04:00,
2013-04-09 08:19:00,61.1,59.0,30.21,WSW,248,5.0,7.0,93,0.00,,,0.00,weatherlink.com 1.10,2013-04-09 12:19:00,
2013-04-09 08:34:00,61.4,59.0,30.21,WSW,256,3.0,7.0,92,0.00,,,0.00,weatherlink.com 1.10,2013-04-09 12:34:00,
2013-04-09 08:49:00,61.5,59.0,30.21,WSW,248,6.0,8.0,92,0.00,,,0.00,weatherlink.com 1.10,2013-04-09 12:49:00,
2013-04-09 09:34:00,62.3,59.0,30.22,WSW,246,2.0,9.0,90,0.00,,,0.00,weatherlink.com 1.10,2013-04-09 13:34:00,
2013-04-09 09:49:00,63.3,60.0,30.22,WSW,245,4.0,7.0,90,0.00,,,0.00,weatherlink.com 1.10,2013-04-09 13:49:00,
2013-04-09 10:04:00,63.9,61.0,30.22,WSW,244,5.0,8.0,89,0.00,,,0.00,weatherlink.com 1.10,2013-04-09 14:04:00,
2013-04-09 10:19:00,63.9,60.0,30.22,WSW,241,5.0,7.0,88,0.00,,,0.00,weatherlink.com 1.10,2013-04-09 14:19:00,
2013-04-09 10:34:00,63.6,60.0,30.22,SW,233,4.0,7.0,89,0.00,,,0.00,weatherlink.com 1.10,2013-04-09 14:34:00,
2013-04-09 10:49:00,63.3,60.0,30.23,SSW,212,3.0,7.0,89,0.00,,,0.00,weatherlink.com 1.10,2013-04-09 14:49:00,
2013-04-09 11:04:00,63.9,61.0,30.23,South,191,3.0,7.0,90,0.00,,,0.00,weatherlink.com 1.10,2013-04-09 15:04:00,
2013-04-09 11:19:00,64.8,61.0,30.23,West,264,1.0,5.0,88,0.00,,,0.00,weatherlink.com 1.10,2013-04-09 15:19:00,
2013-04-09 11:35:00,65.5,62.0,30.22,WSW,254,1.0,7.0,87,0.00,,,0.00,weatherlink.com 1.10,2013-04-09 15:35:00,
2013-04-09 11:49:00,65.3,61.0,30.22,SSW,207,7.0,9.0,87,0.00,,,0.00,weatherlink.com 1.10,2013-04-09 15:49:00,
2013-04-09 12:04:00,64.9,61.0,30.21,SW,215,9.0,12.0,88,0.00,,,0.00,weatherlink.com 1.10,2013-04-09 16:04:00,
2013-04-09 12:19:00,64.5,61.0,30.21,WSW,257,7.0,14.0,89,0.00,,,0.00,weatherlink.com 1.10,2013-04-09 16:19:00,
2013-04-09 12:34:00,64.9,62.0,30.20,SW,218,6.0,13.0,89,0.00,,,0.00,weatherlink.com 1.10,2013-04-09 16:34:00,
2013-04-09 12:49:00,65.6,62.0,30.20,WSW,254,4.0,14.0,89,0.00,,,0.00,weatherlink.com 1.10,2013-04-09 16:49:00,
2013-04-09 13:05:00,66.6,62.0,30.19,SW,228,5.0,11.0,86,0.00,,,0.00,weatherlink.com 1.10,2013-04-09 17:05:00,
2013-04-09 13:19:00,66.7,62.0,30.19,SW,228,4.0,10.0,86,0.00,,,0.00,weatherlink.com 1.10,2013-04-09 17:19:00,
2013-04-09 13:34:00,66.4,62.0,30.19,WSW,245,6.0,15.0,86,0.00,,,0.00,weatherlink.com 1.10,2013-04-09 17:34:00,
2013-04-09 13:49:00,66.4,63.0,30.18,SSW,210,7.0,14.0,88,0.00,,,0.00,weatherlink.com 1.10,2013-04-09 17:49:00,
2013-04-09 14:04:00,65.5,62.0,30.18,SSW,212,7.0,17.0,87,0.00,,,0.00,weatherlink.com 1.10,2013-04-09 18:04:00,
2013-04-09 14:34:00,65.2,62.0,30.17,SSW,202,13.0,13.0,88,0.00,,,0.00,weatherlink.com 1.10,2013-04-09 18:34:00,
2013-04-09 14:49:00,64.5,61.0,30.16,WSW,243,10.0,15.0,89,0.00,,,0.00,weatherlink.com 1.10,2013-04-09 18:49:00,
2013-04-09 15:04:00,64.3,61.0,30.15,SSW,200,13.0,17.0,90,0.00,,,0.00,weatherlink.com 1.10,2013-04-09 19:04:00,
2013-04-09 15:19:00,64.1,61.0,30.14,West,259,13.0,20.0,90,0.00,,,0.00,weatherlink.com 1.10,2013-04-09 19:19:00,
2013-04-09 15:34:00,64.7,62.0,30.14,WSW,244,6.0,21.0,90,0.00,,,0.00,weatherlink.com 1.10,2013-04-09 19:34:00,
2013-04-09 15:49:00,64.2,61.0,30.14,SW,230,8.0,20.0,89,0.00,,,0.00,weatherlink.com 1.10,2013-04-09 19:49:00,
2013-04-09 16:04:00,64.1,61.0,30.13,SW,218,16.0,20.0,90,0.00,,,0.00,weatherlink.com 1.10,2013-04-09 20:04:00,
2013-04-09 16:34:00,63.7,61.0,30.13,SW,226,18.0,21.0,90,0.00,,,0.00,weatherlink.com 1.10,2013-04-09 20:34:00,
2013-04-09 16:50:00,63.8,61.0,30.13,SW,231,14.0,19.0,90,0.00,,,0.00,weatherlink.com 1.10,2013-04-09 20:50:00,
2013-04-09 17:04:00,64.0,61.0,30.12,SW,229,11.0,18.0,90,0.00,,,0.00,weatherlink.com 1.10,2013-04-09 21:04:00,
2013-04-09 17:20:00,63.8,61.0,30.12,SW,219,13.0,21.0,90,0.00,,,0.00,weatherlink.com 1.10,2013-04-09 21:20:00,
2013-04-09 17:35:00,63.8,61.0,30.12,SSW,201,10.0,21.0,91,0.00,,,0.00,weatherlink.com 1.10,2013-04-09 21:35:00,
2013-04-09 17:50:00,63.9,61.0,30.12,SSW,213,11.0,22.0,91,0.00,,,0.00,weatherlink.com 1.10,2013-04-09 21:50:00,
2013-04-09 18:05:00,64.1,61.0,30.13,SW,221,3.0,14.0,90,0.00,,,0.00,weatherlink.com 1.10,2013-04-09 22:05:00,
2013-04-09 18:20:00,64.6,62.0,30.13,SW,236,4.0,12.0,90,0.00,,,0.00,weatherlink.com 1.10,2013-04-09 22:20:00,
2013-04-09 18:35:00,64.3,61.0,30.12,South,188,13.0,13.0,90,0.00,,,0.00,weatherlink.com 1.10,2013-04-09 22:35:00,
2013-04-09 18:50:00,63.0,61.0,30.12,SW,228,10.0,19.0,92,0.00,,,0.00,weatherlink.com 1.10,2013-04-09 22:50:00,
2013-04-09 19:05:00,63.1,61.0,30.12,SSW,200,1.0,13.0,92,0.00,,,0.00,weatherlink.com 1.10,2013-04-09 23:05:00,
2013-04-09 19:35:00,62.7,60.0,30.13,SW,231,9.0,15.0,92,0.00,,,0.00,weatherlink.com 1.10,2013-04-09 23:35:00,
2013-04-09 19:50:00,62.8,61.0,30.13,WSW,238,7.0,16.0,93,0.00,,,0.00,weatherlink.com 1.10,2013-04-09 23:50:00,
2013-04-09 20:05:00,62.7,61.0,30.14,WSW,240,3.0,13.0,93,0.00,,,0.00,weatherlink.com 1.10,2013-04-10 00:05:00,
2013-04-09 20:20:00,62.5,61.0,30.14,WSW,257,4.0,11.0,93,0.00,,,0.00,weatherlink.com 1.10,2013-04-10 00:20:00,
2013-04-09 20:35:00,62.1,60.0,30.15,West,271,5.0,12.0,93,0.00,,,0.00,weatherlink.com 1.10,2013-04-10 00:35:00,
2013-04-09 20:50:00,62.1,60.0,30.15,West,273,5.0,13.0,94,0.00,,,0.00,weatherlink.com 1.10,2013-04-10 00:50:00,
2013-04-09 21:05:00,62.2,61.0,30.16,SW,232,5.0,12.0,94,0.00,,,0.00,weatherlink.com 1.10,2013-04-10 01:05:00,
2013-04-09 21:20:00,62.0,60.0,30.16,SW,219,5.0,12.0,94,0.00,,,0.00,weatherlink.com 1.10,2013-04-10 01:20:00,
2013-04-09 21:35:00,62.0,60.0,30.16,WSW,256,6.0,13.0,94,0.00,,,0.00,weatherlink.com 1.10,2013-04-10 01:35:00,
2013-04-09 21:50:00,62.0,60.0,30.16,WSW,255,4.0,12.0,94,0.00,,,0.00,weatherlink.com 1.10,2013-04-10 01:50:00,
2013-04-09 22:05:00,61.8,60.0,30.16,SW,223,4.0,11.0,94,0.00,,,0.00,weatherlink.com 1.10,2013-04-10 02:05:00,
2013-04-09 22:20:00,61.2,60.0,30.16,WSW,249,8.0,10.0,94,0.00,,,0.00,weatherlink.com 1.10,2013-04-10 02:20:00,
2013-04-09 22:35:00,61.2,60.0,30.16,West,271,8.0,14.0,95,0.00,,,0.00,weatherlink.com 1.10,2013-04-10 02:35:00,
2013-04-09 22:50:00,61.1,60.0,30.16,SW,229,7.0,12.0,95,0.00,,,0.00,weatherlink.com 1.10,2013-04-10 02:50:00,
2013-04-09 23:05:00,61.0,60.0,30.15,West,264,4.0,11.0,95,0.00,,,0.00,weatherlink.com 1.10,2013-04-10 03:05:00,
2013-04-09 23:20:00,61.3,60.0,30.15,NW,309,8.0,14.0,96,0.00,,,0.00,weatherlink.com 1.10,2013-04-10 03:20:00,
2013-04-09 23:35:00,61.4,60.0,30.14,WSW,251,4.0,9.0,96,0.00,,,0.00,weatherlink.com 1.10,2013-04-10 03:35:00,
2013-04-09 23:50:00,61.0,60.0,30.14,West,276,7.0,9.0,96,0.00,,,0.00,weatherlink.com 1.10,2013-04-10 03:50:00,